Weather History for Gonzales, LA

Change the Weather History Date:

Saturday, November 24, 2012

  Actual Average (KBTR) Record (KBTR)
Temperature  
Mean Temperature 48 °F 58 °F  
Max Temperature 60 °F 69 °F 85 °F (1973)
Min Temperature 37 °F 47 °F 24 °F (1970)
Degree Days  
Heating Degree Days 16 8  
Month to date heating degree days 136  
Since 1 July heating degree days 182  
Cooling Degree Days 0 1  
Month to date cooling degree days 43  
Year to date cooling degree days 2793  
Moisture  
Dew Point 38 °F    
Average Humidity 63    
Maximum Humidity 97    
Minimum Humidity 36    
Precipitation  
Precipitation 0.00 in 0.13 in 1.74 in (1986)
Month to date precipitation 3.24  
Year to date precipitation 54.19  
Snow  
Snow - - - ()
Month to date snowfall  
Since 1 July snowfall  
Since 1 September snowfall  
Snow Depth -    
Sea Level Pressure  
Sea Level Pressure 30.25 in    
Wind  
Wind Speed 4 mph ()    
Max Wind Speed 8 mph    
Max Gust Speed -    
Visibility 10.0 miles    
Events      
T = Trace of Precipitation, MM = Missing Value Source: Averaged Metar Reports

Daily Weather History Graph

Daily Weather History Graph

Search for Another Location

Airport:

Trip Planner

Search our weather history database for the weather conditions in past years. The results will help you decide how hot, cold, wet, or windy it might be!

Date:

Astronomy

Nov. 24, 2012 Rise Set
Actual Time 6:37 AM CST 5:03 PM CST
Civil Twilight 6:11 AM CST 5:29 PM CST
Nautical Twilight 5:41 AM CST 5:59 PM CST
Astronomical Twilight 5:13 AM CST 6:27 PM CST
Moon 2:38 PM CST (11/24) 3:06 AM CST (11/24)
Length of Visible Light 11h 18m
Length of Day
10h 26m
Waxing Gibbous, 87% of the Moon is Illuminated
Nov 24
Waxing Gibbous
Nov 28
Full
Dec 6
Last Quarter
Dec 13
New
Dec 19
First Quarter

Hourly Weather History & Observations

Time (CST) Temp. Windchill Dew Point Humidity Pressure Visibility Wind Dir Wind Speed Gust Speed Precip Events Conditions
12:15 AM 59.9 °F - 50.7 °F 72% 30.24 in 10.0 mi North 8.1 mph - N/A   Mostly Cloudy
12:35 AM 59.5 °F - 48.4 °F 67% 30.25 in 10.0 mi North 5.8 mph - N/A   Overcast
12:55 AM 58.1 °F - 48.2 °F 70% 30.25 in 10.0 mi North 3.5 mph - N/A   Mostly Cloudy
1:15 AM 57.9 °F - 48.6 °F 71% 30.25 in 10.0 mi North 3.5 mph - N/A   Mostly Cloudy
1:35 AM 57.6 °F - 46.9 °F 68% 30.25 in 10.0 mi North 4.6 mph - N/A   Overcast
1:55 AM 57.2 °F - 45.7 °F 65% 30.25 in 10.0 mi North 3.5 mph - N/A   Overcast
2:15 AM 57.6 °F - 43.7 °F 60% 30.24 in 10.0 mi Calm Calm - N/A   Mostly Cloudy
2:35 AM 56.3 °F - 45.9 °F 68% 30.25 in 10.0 mi Calm Calm - N/A   Overcast
2:55 AM 56.3 °F - 46.0 °F 68% 30.25 in 10.0 mi North 4.6 mph - N/A   Overcast
3:15 AM 55.9 °F - 43.9 °F 64% 30.25 in 10.0 mi Calm Calm - N/A   Mostly Cloudy
3:35 AM 53.6 °F - 44.8 °F 72% 30.26 in 10.0 mi North 4.6 mph - N/A   Scattered Clouds
3:55 AM 54.7 °F - 41.4 °F 61% 30.25 in 10.0 mi North 8.1 mph - N/A   Clear
4:15 AM 53.6 °F - 40.6 °F 62% 30.26 in 10.0 mi North 6.9 mph - N/A   Clear
4:35 AM 52.7 °F - 40.3 °F 63% 30.26 in 10.0 mi North 5.8 mph - N/A   Clear
4:55 AM 51.8 °F - 39.6 °F 63% 30.27 in 10.0 mi North 4.6 mph - N/A   Clear
5:15 AM 50.9 °F - 38.5 °F 62% 30.28 in 10.0 mi NNE 6.9 mph - N/A   Clear
5:35 AM 49.6 °F - 38.5 °F 65% 30.28 in 10.0 mi NNE 4.6 mph - N/A   Clear
5:55 AM 48.9 °F - 38.5 °F 67% 30.29 in 10.0 mi NNE 4.6 mph - N/A   Clear
6:15 AM 48.2 °F - 38.3 °F 69% 30.29 in 10.0 mi NNE 5.8 mph - N/A   Clear
6:35 AM 47.3 °F - 37.9 °F 70% 30.30 in 10.0 mi North 6.9 mph - N/A   Clear
6:55 AM 46.8 °F - 37.6 °F 70% 30.31 in 10.0 mi NNE 4.6 mph - N/A   Clear
7:15 AM 46.4 °F 43.5 °F 37.0 °F 70% 30.31 in 10.0 mi NNE 5.8 mph - N/A   Clear
7:35 AM 46.4 °F 44.3 °F 38.1 °F 73% 30.32 in 10.0 mi North 4.6 mph - N/A   Clear
7:55 AM 46.9 °F - 38.3 °F 72% 30.32 in 10.0 mi NNE 8.1 mph - N/A   Clear
8:15 AM 47.7 °F - 37.4 °F 68% 30.33 in 10.0 mi North - - N/A   Clear
8:35 AM 48.4 °F - 36.0 °F 62% 30.33 in 10.0 mi NNE 6.9 mph - N/A   Clear
8:55 AM 49.3 °F - 35.8 °F 60% 30.33 in 10.0 mi NNE 8.1 mph - N/A   Clear
9:15 AM 50.2 °F - 35.8 °F 58% 30.33 in 10.0 mi NE 6.9 mph - N/A   Clear
9:35 AM 50.9 °F - 35.8 °F 56% 30.33 in 10.0 mi NNE 6.9 mph - N/A   Clear
9:55 AM 51.8 °F - 36.0 °F 55% 30.33 in 10.0 mi NE 5.8 mph - N/A   Clear
10:15 AM 52.5 °F - 35.4 °F 52% 30.33 in 10.0 mi NE 3.5 mph - N/A   Clear
10:35 AM 54.3 °F - 36.7 °F 51% 30.32 in 10.0 mi NNE 4.6 mph - N/A   Clear
10:55 AM 54.1 °F - 36.0 °F 50% 30.32 in 10.0 mi Calm Calm - N/A   Clear
11:15 AM 54.5 °F - 35.4 °F 49% 30.31 in 10.0 mi North 3.5 mph - N/A   Clear
11:35 AM 55.6 °F - 36.5 °F 49% 30.29 in 10.0 mi North 3.5 mph - N/A   Clear
11:55 AM 56.5 °F - 36.1 °F 47% 30.28 in 10.0 mi North 5.8 mph - N/A   Clear
12:15 PM 57.2 °F - 35.6 °F 44% 30.27 in 10.0 mi Calm Calm - N/A   Clear
12:35 PM 58.3 °F - 36.3 °F 44% 30.25 in 10.0 mi North 6.9 mph - N/A   Clear
12:55 PM 58.6 °F - 35.4 °F 42% 30.24 in 10.0 mi North 4.6 mph - N/A   Clear
1:15 PM 59.2 °F - 34.5 °F 40% 30.24 in 10.0 mi North 3.5 mph - N/A   Clear
1:35 PM 59.2 °F - 34.2 °F 39% 30.23 in 10.0 mi Calm Calm - N/A   Clear
1:55 PM 60.1 °F - 34.3 °F 38% 30.22 in 10.0 mi NNW 4.6 mph - N/A   Clear
2:15 PM 60.3 °F - 34.3 °F 38% 30.21 in 10.0 mi NNW 6.9 mph - N/A   Clear
2:35 PM 59.9 °F - 34.9 °F 39% 30.21 in 10.0 mi NW 4.6 mph - N/A   Clear
2:55 PM 60.4 °F - 33.6 °F 37% 30.20 in 10.0 mi North 5.8 mph - N/A   Clear
3:15 PM 60.1 °F - 33.6 °F 37% 30.20 in 10.0 mi NNW 5.8 mph - N/A   Clear
3:35 PM 59.9 °F - 32.9 °F 36% 30.20 in 10.0 mi North 3.5 mph - N/A   Clear
3:55 PM 59.5 °F - 32.9 °F 37% 30.20 in 10.0 mi NNW 6.9 mph - N/A   Clear
4:15 PM 59.2 °F - 32.7 °F 37% 30.20 in 10.0 mi North 4.6 mph - N/A   Clear
4:35 PM 58.3 °F - 33.6 °F 39% 30.20 in 10.0 mi NNW 4.6 mph - N/A   Clear
4:55 PM 56.5 °F - 34.0 °F 43% 30.20 in 10.0 mi Calm Calm - N/A   Clear
5:15 PM 53.8 °F - 36.3 °F 52% 30.20 in 10.0 mi Calm Calm - N/A   Clear
5:35 PM 51.8 °F - 37.6 °F 58% 30.20 in 10.0 mi Calm Calm - N/A   Clear
5:55 PM 50.4 °F - 38.8 °F 65% 30.21 in 10.0 mi Calm Calm - N/A   Clear
6:15 PM 48.4 °F - 38.5 °F 69% 30.21 in 10.0 mi Calm Calm - N/A   Clear
6:35 PM 46.4 °F - 37.9 °F 72% 30.21 in 10.0 mi Calm Calm - N/A   Clear
6:55 PM 46.6 °F - 38.8 °F 74% 30.21 in 10.0 mi Calm Calm - N/A   Clear
7:15 PM 45.3 °F - 38.8 °F 78% 30.22 in 10.0 mi Calm Calm - N/A   Clear
7:35 PM 44.4 °F - 38.7 °F 80% 30.22 in 10.0 mi Calm Calm - N/A   Clear
7:55 PM 44.6 °F - 38.8 °F 80% 30.22 in 10.0 mi Calm Calm - N/A   Clear
8:15 PM 43.7 °F - 39.4 °F 85% 30.22 in 10.0 mi Calm Calm - N/A   Clear
8:35 PM 41.9 °F - 38.5 °F 88% 30.22 in 10.0 mi Calm Calm - N/A   Clear
8:55 PM 42.6 °F - 38.5 °F 85% 30.22 in 10.0 mi Calm Calm - N/A   Clear
9:15 PM 41.7 °F - 38.8 °F 89% 30.22 in 10.0 mi Calm Calm - N/A   Clear
9:35 PM 41.7 °F - 37.4 °F 85% 30.22 in 10.0 mi North - - N/A   Clear
9:55 PM 40.3 °F - 37.4 °F 89% 30.21 in 10.0 mi North - - N/A   Clear
10:15 PM 39.4 °F - 36.5 °F 89% 30.21 in 10.0 mi North - - N/A   Clear
10:35 PM 39.4 °F - 36.9 °F 91% 30.21 in 10.0 mi North - - N/A   Clear
10:55 PM 37.8 °F - 36.9 °F 97% 30.21 in 10.0 mi North - - N/A   Clear
11:15 PM 38.7 °F - 37.0 °F 94% 30.20 in 10.0 mi North - - N/A   Clear
11:35 PM 38.7 °F - 36.9 °F 93% 30.20 in 10.0 mi North - - N/A   Clear
11:55 PM 38.1 °F - 36.5 °F 94% 30.19 in 10.0 mi North - - N/A   Clear